Regional Weather Roundup
Issued by NWS

Home | Current Version | Previous Version | Graphics & Text | Print | Product List | Glossary On
Versions: 1 2 3 4 5 6 7 8 9 10 11 12 13 14 15 16 17 18 19 20 21 22 23 24 25 26 27 28 29 30 31 32 33 34 35 36 37 38 39 40 41 42 43 44 45 46 47 48 49 50
000
ASUS44 KMEG 041100
RWRTN
TENNESSEE HOURLY STATE WEATHER ROUNDUP
NATIONAL WEATHER SERVICE MEMPHIS TN
600 AM CDT WED MAY 04 2016

TNZ002-004-019-021-049-052-054-088>092-041200-
WEST TENNESSEE

CITY           SKY/WX    TMP DP  RH WIND       PRES   REMARKS
MEMPHIS INTL   PTCLDY    52  47  83 CALM      29.90F
NWS MEMPHIS      N/A     48 N/A N/A MISG        N/A
JACKSON        CLEAR     49  47  93 SW6       29.88F
DYERSBURG      CLEAR     50  48  93 SW7       29.87S
UNION CITY     CLEAR     48  48 100 SW3       29.84F
LEXINGTON      CLEAR     43  43 100 CALM      29.86F
$$

TNZ008-025-027-028-033-062-065-066-041200-
NORTH MIDDLE TENNESSEE

CITY           SKY/WX    TMP DP  RH WIND       PRES   REMARKS
NASHVILLE      CLEAR     47  44  90 S3        29.86S
CLARKSVILLE    CLEAR     48  44  86 SW3       29.84F
COOKEVILLE     CLEAR     43  41  93 CALM      29.84S
CROSSVILLE     CLEAR     44  42  93 CALM      29.85S
$$

TNZ061-075-076-078-094-096-097-041200-
SOUTH MIDDLE TENNESSEE

CITY           SKY/WX    TMP DP  RH WIND       PRES   REMARKS
TULLAHOMA      CLEAR     43  43 100 W5        29.87F
WINCHESTER     PTCLDY    43  43 100 CALM      29.88S
MCMINNVILLE    CLEAR     45  45 100 CALM      29.86S
COLUMBIA       CLEAR    N/A N/A N/A CALM      29.86S
SHELBYVILLE    CLEAR     45  43  93 CALM      29.88S
$$

TNZ017-018-042-046-047-041200-
NORTHEAST TENNESSEE

CITY           SKY/WX    TMP DP  RH WIND       PRES   REMARKS
TRI CITIES     CLOUDY    54  45  71 W6        29.80R
$$

TNZ012-013-036-069-073-074-041200-
CENTRAL EAST TENNESSEE

CITY           SKY/WX    TMP DP  RH WIND       PRES   REMARKS
KNOXVILLE      PTCLDY    51  45  79 W6        29.83R
OAK RIDGE      CLEAR     50  45  83 W3        29.85S
GATLINBURG     MOSUNNY   52  46  82 W3        29.83R
$$

TNZ083-085-099-041200-
SOUTHEAST TENNESSEE

CITY           SKY/WX    TMP DP  RH WIND       PRES   REMARKS
CHATTANOOGA    PTCLDY    53  45  74 W7        29.86S
$$

SKY/WX REPORTED AS FAIR MEANS FEW OR NO CLOUDS BELOW
12 THOUSAND FEET.





USA.gov is the U.S. government's official web portal to all federal, state and local government web resources and services.